Regional Weather Roundup
Issued by NWS

Home | Current Version | Previous Version | Graphics & Text | Print | Product List | Glossary On
Versions: 1 2 3 4 5 6 7 8 9 10 11 12 13 14 15 16 17 18 19 20 21 22 23 24 25 26 27 28 29 30 31 32 33 34 35 36 37 38 39 40 41 42 43 44 45 46 47 48 49 50
000
ASUS43 KFSD 200302
RWRSD

WEATHER ROUNDUP FOR SOUTH DAKOTA
NATIONAL WEATHER SERVICE SIOUX FALLS SD
900 PM CST FRI JAN 19 2018

NOTE: "FAIR" INDICATES FEW OR NO CLOUDS BELOW 12,000 FEET WITH NO
SIGNIFICANT WEATHER AND/OR OBSTRUCTIONS TO VISIBILITY.


SDZ001>005-009-010-012>017-200400-
NORTHWEST AND NORTH CENTRAL SOUTH DAKOTA

CITY           SKY/WX    TMP DP  RH WIND       PRES   REMARKS
BUFFALO          N/A     36  33  89 W6        29.68R
FAITH            N/A     35  33  92 W8        29.74R WCI  29
MOBRIDGE       CLOUDY    36  31  82 NW5       29.71R
$$

SDZ012>016-024>037-041>051-057-063-072>074-200400-
SOUTHWEST AND SOUTH CENTRAL SOUTH DAKOTA

CITY           SKY/WX    TMP DP  RH WIND       PRES   REMARKS
RAPID CTY ARPT PTCLDY    30  27  88 N3        29.74S
PIERRE         CLEAR     29  28  96 W9        29.74R WCI  20
CUSTER         CLOUDY    29  24  82 CALM      29.72R
ELLSWORTH AFB  PTCLDY    30  30 100 NW5       29.73S WCI  25
PHILIP         CLEAR     28  28 100 W6        29.75S WCI  22
PINE RIDGE     PTCLDY    28  27  96 NE5       29.75R WCI  23
SPEARFISH        N/A     32  30  93 CALM      29.75R
WINNER         FAIR      36  31  82 W6        29.75S
$$

SDZ004>011-016>023-039-040-200400-
NORTHEAST SOUTH DAKOTA

CITY           SKY/WX    TMP DP  RH WIND       PRES   REMARKS
ABERDEEN       PTCLDY    26  24  92 SW7       29.71R WCI  18
WATERTOWN      CLOUDY    34  29  82 CALM      29.68R
BROOKINGS      CLOUDY    34  28  79 W5        29.70R WCI  30
SISSETON         N/A     35  28  75 W6        29.66S
$$

SDZ017-020-022-023-036>040-048>070-200400-
SOUTHEAST SOUTH DAKOTA

CITY           SKY/WX    TMP DP  RH WIND       PRES   REMARKS
SIOUX FALLS    CLOUDY    33  30  88 CALM      29.72R
HURON          MOCLDY    32  28  85 W8        29.74R WCI  25
CHAMBERLAIN    MOCLDY    36  33  90 CALM      29.75S
MITCHELL       CLOUDY    37  31  78 W6        29.75R
YANKTON        CLOUDY    37  31  78 NW12      29.73R
$$

ABBREVIATIONS USED IN REMARKS
   TC - TEMPERATURE IN CELSIUS
  WCI - WIND CHILL INDEX
   HX - HEAT INDEX
  VSB - VISIBILITY





USA.gov is the U.S. government's official web portal to all federal, state and local government web resources and services.